Location: Acequia del Cap
(41.7000°N, 0.6167°E)
Time: 15:29:29
(UTC+00:00)

SL-23 DEB - Pass Details

Date: 07 August 2020
Orbit: 426 x 3629 km, 51.5° (Epoch: 22 September)

Event Time Altitude Azimuth Distance (km) Brightness Sun altitude
Rises 02:59:56 0° 304° (NW) 4,370 8.3 -19.1°
Reaches altitude 10° 03:03:36 10° 302° (WNW) 2,906 7.3 -18.6°
Maximum altitude 03:09:50 65° 222° (SW) 753 4.2 -17.8°
Drops below altitude 10° 03:13:34 10° 140° (SE) 1,758 6.4 -17.3°
Sets 03:15:20 0° 137° (SE) 2,509 7.2 -17.0°
